User: anonymous   Login
Location: Unspecified
(0.0000°N, 0.0000°E)
Time: 17:06:33
(UTC+01:00)
Language:

Meteor PRIRODA - Orbit

View from above orbital plane
View from above orbital plane
View from above satellite
View from above satellite

Ground track
Ground track

The orbit data is extracted from the following two-line orbital elements,

1 12585U 81065A   16042.87087765  .00003663  00000-0  17796-3 0  9993
2 12585  97.3762  25.5169 0014179 323.5965  93.7956 15.18978601887659
Epoch (UTC): 11 February 2016 20:54:03
Eccentricity: 0.0014179
inclination: 97.3762°
perigee height: 499 km
apogee height: 518 km
right ascension of ascending node: 25.5169°
argument of perigee: 323.5965°
revolutions per day: 15.18978601
mean anomaly at epoch: 93.7956°
orbit number at epoch: 88765

The dashed part of the orbit path shows where the satellite is in the earth's shadow,  

DLR